San Jose, Costa Rica

1:16 AM CST on December 08, 2016 (GMT -0600)
Juan Santamaria International

Weather History for MROC - April, 2012

Change the Weather History Date:

Tuesday, April 24, 2012

  Actual Average Record
Temperature  
Mean Temperature 72 °F -  
Max Temperature 79 °F 81 °F 97 °F (2014)
Min Temperature 66 °F 65 °F 61 °F (2015)
Cooling Degree Days 8    
Growing Degree Days 22 (Base 50)    
Moisture  
Dew Point 58 °F    
Average Humidity 61    
Maximum Humidity 73    
Minimum Humidity 41    
Precipitation  
Precipitation 0.00 in 0.30 in - ()
Sea Level Pressure  
Sea Level Pressure 29.95 in    
Wind  
Wind Speed 10 mph ()    
Max Wind Speed 18 mph    
Max Gust Speed 25 mph    
Visibility 8.5 miles    
Events      
Averages and records for this station are not official NWS values.
T = Trace of Precipitation, MM = Missing Value Source: Averaged Metar Reports

Daily Weather History Graph

Daily Weather History Graph

Search for Another Location

Airport or City:

Trip Planner

Search our weather history database for the weather conditions in past years. The results will help you decide how hot, cold, wet, or windy it might be!

Date:

Astronomy

Apr. 24, 2012 Rise Set
Actual Time 5:22 AM CST 5:47 PM CST
Civil Twilight 5:00 AM CST 6:09 PM CST
Nautical Twilight 4:35 AM CST 6:34 PM CST
Astronomical Twilight 4:09 AM CST 7:00 PM CST
Moon 7:43 AM CST (4/24) 8:40 PM CST (4/24)
Length of Visible Light 13h 09m
Length of Day
12h 25m
Waxing Crescent, 10% of the Moon is Illuminated
Apr 24
Waxing Crescent
Apr 29
First Quarter
May 5
Full
May 12
Last Quarter
May 20
New

Hourly Weather History & Observations

Time (CST) Temp. Dew Point Humidity Pressure Visibility Wind Dir Wind Speed Gust Speed Precip Events Conditions
12:00 AM 67 °F 57 °F 63% 29.89 in 12 mi East 10.4 mph - -  
12:00 AM 66.2 °F 57.2 °F 73% 30.02 in - East 10.4 mph - N/A   Clear
1:00 AM 68.0 °F 57.2 °F 68% 29.99 in - ESE 11.5 mph - N/A   Clear
2:00 AM 68.0 °F 57.2 °F 68% 29.96 in - ESE 10.4 mph - N/A   Clear
3:00 AM 69 °F 58 °F 58% 29.83 in 12 mi East 11.5 mph - -  
3:00 AM 68.0 °F 57.2 °F 68% 29.97 in - East 11.5 mph - N/A   Clear
4:00 AM 68.0 °F 57.2 °F 68% 29.97 in - ENE 8.1 mph - N/A   Clear
5:00 AM 68.0 °F 59.0 °F 73% 29.97 in - NE 8.1 mph - N/A   Clear
6:00 AM 68 °F 58 °F 61% 29.87 in 12 mi NE 9.2 mph - -   Clear
6:00 AM 68.0 °F 57.2 °F 68% 29.98 in - NE 9.2 mph - N/A   Clear
7:00 AM 73.4 °F 59.0 °F 61% 30.00 in - ENE 8.1 mph - N/A   Clear
8:00 AM 73.4 °F 59.0 °F 61% 30.00 in - East 11.5 mph 23.0 mph N/A   Clear
9:00 AM 76 °F 60 °F 47% 29.87 in 12 mi East 13.8 mph - -  
9:00 AM 77.0 °F 59.0 °F 54% 30.02 in - East 13.8 mph - N/A   Clear
10:00 AM 78.8 °F 59.0 °F 51% 30.02 in 6.2 mi East 11.5 mph - N/A   Partly Cloudy
11:00 AM 77.0 °F 59.0 °F 54% 30.01 in 6.2 mi East 12.7 mph - N/A   Partly Cloudy
12:00 PM 78 °F 59 °F 41% 29.83 in 12 mi ESE 12.7 mph - -   Scattered Clouds
12:00 PM 78.8 °F 59.0 °F 51% 29.99 in 6.2 mi ESE 12.7 mph 24.2 mph N/A   Partly Cloudy
1:00 PM 77.0 °F 59.0 °F 54% 29.96 in 6.2 mi ESE 11.5 mph 24.2 mph N/A   Partly Cloudy
2:00 PM 77.0 °F 59.0 °F 54% 29.96 in 6.2 mi East 11.5 mph 23.0 mph N/A   Scattered Clouds
3:00 PM 76 °F 59 °F 45% 29.80 in 12 mi ESE 11.5 mph - -   Scattered Clouds
3:00 PM 75.2 °F 59.0 °F 57% 29.94 in 6.2 mi ESE 11.5 mph 23.0 mph N/A   Scattered Clouds
4:00 PM 71.6 °F 59.0 °F 64% 29.94 in 6.2 mi ESE 18.4 mph - N/A   Mostly Cloudy
5:00 PM 71.6 °F 57.2 °F 60% 29.96 in 6.2 mi ESE 12.7 mph 24.2 mph N/A   Scattered Clouds
6:00 PM 69 °F 58 °F 60% 29.86 in 12 mi East 11.5 mph - -   Scattered Clouds
6:00 PM 68.0 °F 59.0 °F 73% 29.99 in 6.2 mi East 11.5 mph 23.0 mph N/A   Mostly Cloudy
7:00 PM 68.0 °F 59.0 °F 73% 30.00 in 6.2 mi ESE 13.8 mph 25.3 mph N/A   Scattered Clouds
8:00 PM 68.0 °F 59.0 °F 73% 30.02 in 6.2 mi ENE 11.5 mph - N/A   Scattered Clouds